小惑星A/2019 N2

A/2019 N2

English version
Home page
Updated on February 26, 2023

---------------------------------------------------------------------

・ プロフィール

発見日 2019年7月4日
発見光度 15.7等
発見者 Transiting Exoplanet Survey Satellite (TESS)

・ 軌道要素

Epoch 2023 Feb. 25.0 TT = JDT 2460000.5                                         
T 2019 Aug. 22.77529 TT                                 Rudenko                 
q   1.9479428            (2000.0)            P               Q                  
z  +0.0005973      Peri.  347.19946     +0.10147830     +0.03386449             
 +/-0.0000520      Node   276.11125     -0.80169948     -0.58897991             
e   0.9988364      Incl.   89.39266     -0.58905017     +0.80743784             
H   12.5                                                                        
>From 342 observations 2019 June 20-Oct. 30, mean residual 0".2.                 

・ 星図

・ 光度変化

        H = 12.5  G = 0.15

---------------------------------------------------------------------

軌道要素はM.P.E.C. 2023-C138に掲載されたものです。
星図はステラナビゲータ Ver.10 (アストロアーツ) で作成したものです。
光度グラフはComet for Windowsで作成したものです。

---------------------------------------------------------------------

Copyright(C) Seiichi Yoshida (comet@aerith.net). All rights reserved.